"Pseudo-MPEC" for P10ON8M

Created 2019 Jun 15 19:08:24 UT using Find_Orb

Click here for an explanation of pseudo-MPECs

 
 Astrometry: 
     P10ON8M  C2019 04 06n=D(uF9_-%t7F,M(t'bcfZ^jOmYnbNHrPUsAstrometryi;ZHiKnF51
     P10ON8M  C2019 04 06OxP$%lgFLK6!?J[3f05redacted;F\e/Tqj`oK5n!9MHst,dPK41F51
     P10ON8M  C2019 04 068TuM!Xl#gFN14''#O]=V+wPY)n/.\u6p'k(snJ?v[v0#4E`+k(,KF51
     P10ON8M  C2019 04 06f4t\/uLZVPffIcEsr#aclt/u4a5fdhFA,qM)t6_@/WCqO`=II8)]F51
     P10ON8M  C2019 05 04S/`i%LSnLNThE'K@qd:'v7RKQoO!bX8;BR^!$lI*@XM@_R:W=T89F51
     P10ON8M  C2019 05 04EDdvmmQ/j%Bc#!UM_P+2pDe0U(GAcE_9m-k3['iWElXs*X*#od2QF51
     P10ON8M  C2019 05 07(4LEYf_s*)`eclickdOB/uUdIMn'WI^M3KX_+;rKyD*(^IFgFVU@F51
     P10ON8M  C2019 05 07e(hG_7+fKVEAo*\hU7gSuIkyoXy%tTy:\hau%lb*#aKLEb:Ty[-NF51
     P10ON8M  C2019 05 28.34990 15 55 40.13 -07 53 28.4    ~69Iq 21.6 GVNEOCPG96
     P10ON8M  C2019 05 28.35529 15 55 39.70 -07 53 30.9    ~69Iq 21.5 GVNEOCPG96
     P10ON8M  C2019 05 28.36068 15 55 39.24 -07 53 33.0    ~69Iq 21.6 GVNEOCPG96
     P10ON8M  C2019 06 02^xMT0L3*Z3D!_8ZRTe/o6[:RPn+1UZp-a$=h7!HJe%_W`keKZ;6NF51
     P10ON8M  C2019 06 02nfvSQQgG8O%/qqd?A^!$oaIZf$:':BOZ)1oJ3ay8JJ/5j+S(`1xGF51
     P10ON8M  C2019 06 02[X3_MnSox34[x]+1y_$I/g^yLl(2#Z388Q?o*iGq#(J:35mr9=([F51
     P10ON8M  C2019 06 02U[-!=t%waqjbI/1-xXYU`)JM=24\mj=Tk5(J2jBREf=,u?N5xuo-F51
     P10ON8M  C2019 06 07*RTNp.?_kDq[@Ng?:*K2YE`HG8dBb[)l3]t]F9B77:LWB9v6CHGcF51
     P10ON8M  C2019 06 07Jn!4kcIt/here]2)@XwcI4Wuly4B5WD73E]:K_?OY)2k2,#coxUDF51
     P10ON8M  C2019 06 07YifHe`g0`$$bPc\%wekBQwF;G9'\7a%#/BomSVrWrA.[s`K#`@$AF51
     P10ON8M  C2019 06 07Y,#pm(MVbpL0#\\Z.^U=sM6yh;V([5InALh/FDqJ[?,=SoU/2N6'F51
     P10ON8M |C2019 06 08$r8-SM0n]@6FfZq\_SUEJ/:rL..OjgG(tT/*VWAQmAq'9.fFc2pL807
     P10ON8M |C2019 06 08Lvxy_for-(Ot)WH7@,Hw(yjIJqX^bvp3vc!OHb1w6:.8RNDKLSoP807
     P10ON8M |C2019 06 08Wglj%U@OBBK+w!T92Q)':A3B@gnFt=vQ*iuexplanation/x;^@8807
     P10ON8M |C2019 06 09dKi?Y)+eff%.yG(foN:3KlqnA[F]sfu]kdVKGb64Nov(p$H@,c-1807
     P10ON8M |C2019 06 09/$%P_%3Ykbp7'M(i,qUlyKpHE#1R4t1nJJs8]?TT0[[LJ24ug'ul807
     P10ON8M |C2019 06 09QC8..DC\Uk,Zx=]SqGh,M,0_A,H'My$e.fc+HsP.Sn-p,`BSNN'5807
     P10ON8M  C2019 06 09.23516 15 40 34.04 -09 10 00.4    ~696M       VNEOCPI52
     P10ON8M  C2019 06 09.23849 15 40 33.81 -09 10 01.0    ~696M       VNEOCPI52
     P10ON8M  C2019 06 09.24182 15 40 33.62 -09 10 03.2    ~696M 21.8 GVNEOCPI52
     P10ON8M  C2019 06 09.24515 15 40 33.38 -09 10 04.6    ~696M 21.5 GVNEOCPI52

Station data:
(807) Cerro Tololo Observatory, La Serena  (S30.169136 W70.805900)  Chile.
(F51) Pan-STARRS 1, Haleakala  (N20.707235 W156.255910)  US/Hawaii.
   Observers N. Primak, A. Schultz, S. Watters, J. Thiel, T. Goggia. Measurer
   PS1 Science Consortium. 1.8-m Ritchey-Chrétien + CCD.
(G96) Mt. Lemmon Survey  (N32.442754 W110.788720)  US/Arizona.  Observers T.
   A. Pruyne, B. M. Africano, E. J. Christensen, G. A. Farneth, D. C. Fuls,
   A. R. Gibbs, A. D. Grauer, H. Groeller, J. A. Johnson, R. A. Kowalski, S.
   M. Larson, G. J. Leonard, R. L. Seaman, F. C. Shelly. 1.5-m reflector +
   10K CCD.
(I52) Steward Observatory, Mt. Lemmon Station  (N32.442547 W110.788920)
   US/Arizona.  Observers T. A. Pruyne, B. M. Africano, E. J. Christensen, G.
   A. Farneth, D. C. Fuls, A. R. Gibbs, A. D. Grauer, H. Groeller, J. A.
   Johnson, R. A. Kowalski, S. M. Larson, G. J. Leonard, R. L. Seaman, F. C.
   Shelly. 1.0-m reflector + CCD.

Orbital elements:  P10ON8M
   Perihelion 2020 Mar 28.538638 +/- 0.0402 TT = 12:55:38 (JD 2458937.038638)
Epoch 2019 Jun  9.0 TT = JDT 2458643.5   Earth MOID: 0.8460   AutoNEOCP
M 290.59201629 +/- 0.024            (J2000 ecliptic)
n   0.23645263 +/- 5.4e-5           Peri.  279.47031 +/- 0.0050
a   2.59004084 +/- 0.000394         Node    75.40452 +/- 0.0023
e   0.3742324 +/- 0.000147          Incl.   29.11211 +/- 0.0045
P   4.17                   H 18.0   G  0.15   U  6.2  
q 1.62076346 +/- 0.000137    Q 3.55931823 +/- 0.000922
From 29 observations 2019 Apr. 6-June 9; mean residual 0".34
Residuals in arcseconds: 
190406 F51  .19+  .27-    190528 G96  .15-  .28+    190608 807  .20-  .79-    
190406 F51  .09-  .25-    190602 F51  .08+  .08+    190608 807  .02-  .21-    
190406 F51  .26+  .24-    190602 F51  .15+  .02+    190609 807  .01+  .15-    
190406 F51  .36+  .19-    190602 F51  .21+  .12+    190609 807  .21+  .11-    
190504 F51  .05-  .02-    190602 F51  .13+  .21+    190609 807  .09-  .04+    
190504 F51  .33-  .29-    190607 F51  .09+  .01+    190609 I52  .82-  .59-    
190507 F51  .38-  .36+    190607 F51  .10+  .02-    190609 I52  .53-  .25+    
190507 F51  .33-  .39+    190607 F51  .01-  .05-    190609 I52  .35+  .52-    
190528 G96  .36+  1.2+    190607 F51  .03-  .12+    190609 I52  .50+  .48-    
190528 G96  .33+  .55+    190608 807  .02+  .20-    

Ephemerides (geocentric):
Date (UTC) HH   RA              Dec         delta   r     elong  mag " sig PA
---- -- -- --  -------------   -----------  ------ ------ -----  --- ---- ---
2019 06 15 19  15 32 55.315   -09 59 25.92  1.6584 2.5773 148.1 21.9 .323 103
2019 06 15 20  15 32 52.548   -09 59 45.68  1.6585 2.5771 148.0 21.9 .325 103
2019 06 15 21  15 32 49.783   -10 00 05.45  1.6586 2.5769 148.0 21.9 .327 103
2019 06 15 22  15 32 47.020   -10 00 25.24  1.6587 2.5768 148.0 21.9 .329 103
2019 06 15 23  15 32 44.259   -10 00 45.03  1.6589 2.5766 147.9 21.9 .331 103
2019 06 16 00  15 32 41.501   -10 01 04.83  1.6590 2.5764 147.9 21.9 .333 103
2019 06 16 01  15 32 38.744   -10 01 24.65  1.6591 2.5763 147.8 21.9 .335 103
2019 06 16 02  15 32 35.990   -10 01 44.47  1.6592 2.5761 147.8 21.9 .337 103
2019 06 16 03  15 32 33.237   -10 02 04.31  1.6593 2.5759 147.7 21.9 .339 103
2019 06 16 04  15 32 30.487   -10 02 24.15  1.6594 2.5757 147.7 21.9 .341 103
2019 06 16 05  15 32 27.739   -10 02 44.01  1.6595 2.5756 147.6 21.9 .343 103
2019 06 16 06  15 32 24.993   -10 03 03.88  1.6596 2.5754 147.6 21.9 .345 103
2019 06 16 07  15 32 22.249   -10 03 23.76  1.6597 2.5752 147.5 21.9 .347 102
2019 06 16 08  15 32 19.508   -10 03 43.64  1.6598 2.5751 147.5 21.9 .349 102
2019 06 16 09  15 32 16.768   -10 04 03.54  1.6599 2.5749 147.5 21.9 .351 102
2019 06 16 10  15 32 14.031   -10 04 23.45  1.6601 2.5747 147.4 21.9 .353 102
2019 06 16 11  15 32 11.295   -10 04 43.37  1.6602 2.5746 147.4 21.9 .355 102
2019 06 16 12  15 32 08.562   -10 05 03.30  1.6603 2.5744 147.3 21.9 .357 102
2019 06 16 13  15 32 05.831   -10 05 23.25  1.6604 2.5742 147.3 21.9 .359 102
2019 06 16 14  15 32 03.102   -10 05 43.20  1.6605 2.5741 147.2 21.9 .361 102
2019 06 16 15  15 32 00.375   -10 06 03.16  1.6606 2.5739 147.2 21.9 .363 102
2019 06 16 16  15 31 57.651   -10 06 23.13  1.6607 2.5737 147.1 21.9 .365 102
2019 06 16 17  15 31 54.928   -10 06 43.12  1.6608 2.5736 147.1 21.9 .367 102
2019 06 16 18  15 31 52.208   -10 07 03.11  1.6610 2.5734 147.0 21.9 .369 102
2019 06 16 19  15 31 49.490   -10 07 23.11  1.6611 2.5732 147.0 21.9 .371 102
2019 06 16 20  15 31 46.774   -10 07 43.13  1.6612 2.5731 147.0 21.9 .373 102
2019 06 16 21  15 31 44.060   -10 08 03.15  1.6613 2.5729 146.9 21.9 .375 102
2019 06 16 22  15 31 41.349   -10 08 23.19  1.6614 2.5727 146.9 21.9 .378 102
2019 06 16 23  15 31 38.639   -10 08 43.23  1.6615 2.5726 146.8 21.9 .380 102
2019 06 17 00  15 31 35.932   -10 09 03.29  1.6617 2.5724 146.8 21.9 .382 102
2019 06 17 01  15 31 33.227   -10 09 23.35  1.6618 2.5722 146.7 21.9 .384 102
2019 06 17 02  15 31 30.524   -10 09 43.43  1.6619 2.5721 146.7 21.9 .386 102
2019 06 17 03  15 31 27.824   -10 10 03.52  1.6620 2.5719 146.6 21.9 .388 102
2019 06 17 04  15 31 25.125   -10 10 23.62  1.6621 2.5717 146.6 21.9 .390 102
2019 06 17 05  15 31 22.429   -10 10 43.72  1.6622 2.5716 146.5 21.9 .392 102
2019 06 17 06  15 31 19.735   -10 11 03.84  1.6624 2.5714 146.5 21.9 .394 102
2019 06 17 07  15 31 17.043   -10 11 23.97  1.6625 2.5712 146.5 21.9 .397 102
2019 06 17 08  15 31 14.353   -10 11 44.11  1.6626 2.5711 146.4 21.9 .399 102
2019 06 17 09  15 31 11.666   -10 12 04.26  1.6627 2.5709 146.4 21.9 .401 102
2019 06 17 10  15 31 08.981   -10 12 24.42  1.6628 2.5707 146.3 21.9 .403 102
2019 06 17 11  15 31 06.298   -10 12 44.59  1.6630 2.5705 146.3 22.0 .405 102
2019 06 17 12  15 31 03.617   -10 13 04.77  1.6631 2.5704 146.2 22.0 .407 102
2019 06 17 13  15 31 00.939   -10 13 24.96  1.6632 2.5702 146.2 22.0 .409 102
2019 06 17 14  15 30 58.262   -10 13 45.16  1.6633 2.5700 146.1 22.0 .412 101
2019 06 17 15  15 30 55.588   -10 14 05.37  1.6635 2.5699 146.1 22.0 .414 101
2019 06 17 16  15 30 52.916   -10 14 25.59  1.6636 2.5697 146.0 22.0 .416 101
2019 06 17 17  15 30 50.247   -10 14 45.82  1.6637 2.5695 146.0 22.0 .418 101
2019 06 17 18  15 30 47.580   -10 15 06.06  1.6638 2.5694 146.0 22.0 .420 101